owner,sensor,date,latitude,longitude,vertical_datum,sea_water_practical_salinity,qcFlag 
TABS,ioos:station:wmo:42044:1,2017-10-01T00:00:00Z,26.1914,-97.0507,2.0,29.61,11111222 
TABS,ioos:station:wmo:42044:1,2017-10-01T00:30:00Z,26.1914,-97.0507,2.0,29.6,11111222 
TABS,ioos:station:wmo:42044:1,2017-10-01T01:00:00Z,26.1914,-97.0507,2.0,29.62,11111222 
TABS,ioos:station:wmo:42044:1,2017-10-01T01:30:00Z,26.1914,-97.0507,2.0,29.61,11111222 
TABS,ioos:station:wmo:42044:1,2017-10-01T02:00:00Z,26.1914,-97.0507,2.0,29.6,11111222 
TABS,ioos:station:wmo:42044:1,2017-10-01T02:30:00Z,26.1914,-97.0507,2.0,29.59,11111222 
TABS,ioos:station:wmo:42044:1,2017-10-01T03:00:00Z,26.1914,-97.0507,2.0,29.57,11111222 
TABS,ioos:station:wmo:42044:1,2017-10-01T03:30:00Z,26.1914,-97.0507,2.0,29.58,11111222 
TABS,ioos:station:wmo:42044:1,2017-10-01T04:00:00Z,26.1914,-97.0507,2.0,29.56,11111222 
TABS,ioos:station:wmo:42044:1,2017-10-01T04:30:00Z,26.1914,-97.0507,2.0,29.57,11111222 
TABS,ioos:station:wmo:42044:1,2017-10-01T05:00:00Z,26.1914,-97.0507,2.0,29.13,11111222 
TABS,ioos:station:wmo:42044:1,2017-10-01T05:30:00Z,26.1914,-97.0507,2.0,28.94,11111222 
TABS,ioos:station:wmo:42044:1,2017-10-01T06:00:00Z,26.1914,-97.0507,2.0,28.84,11111222 
TABS,ioos:station:wmo:42044:1,2017-10-01T06:30:00Z,26.1914,-97.0507,2.0,28.79,11111222 
TABS,ioos:station:wmo:42044:1,2017-10-01T07:00:00Z,26.1914,-97.0507,2.0,28.8,11111222 
TABS,ioos:station:wmo:42044:1,2017-10-01T07:30:00Z,26.1914,-97.0507,2.0,28.84,11111222 
TABS,ioos:station:wmo:42044:1,2017-10-01T08:00:00Z,26.1914,-97.0507,2.0,28.87,11111222 
TABS,ioos:station:wmo:42044:1,2017-10-01T08:30:00Z,26.1914,-97.0507,2.0,28.89,11111222 
TABS,ioos:station:wmo:42044:1,2017-10-01T09:00:00Z,26.1914,-97.0507,2.0,28.94,11111222 
TABS,ioos:station:wmo:42044:1,2017-10-01T09:30:00Z,26.1914,-97.0507,2.0,28.98,11111222 
TABS,ioos:station:wmo:42044:1,2017-10-01T10:00:00Z,26.1914,-97.0507,2.0,29.09,11111222 
TABS,ioos:station:wmo:42044:1,2017-10-01T10:30:00Z,26.1914,-97.0507,2.0,29.17,11111222 
TABS,ioos:station:wmo:42044:1,2017-10-01T11:00:00Z,26.1914,-97.0507,2.0,29.2,11111222 
TABS,ioos:station:wmo:42044:1,2017-10-01T11:30:00Z,26.1914,-97.0507,2.0,29.25,11111222 
TABS,ioos:station:wmo:42044:1,2017-10-01T12:00:00Z,26.1914,-97.0507,2.0,29.28,11111222 
TABS,ioos:station:wmo:42044:1,2017-10-01T12:30:00Z,26.1914,-97.0507,2.0,29.09,11111222 
TABS,ioos:station:wmo:42044:1,2017-10-01T13:00:00Z,26.1914,-97.0507,2.0,29.1,11111222 
TABS,ioos:station:wmo:42044:1,2017-10-01T13:30:00Z,26.1914,-97.0507,2.0,29.09,11111222 
TABS,ioos:station:wmo:42044:1,2017-10-01T14:00:00Z,26.1914,-97.0507,2.0,29.06,11111222 
TABS,ioos:station:wmo:42044:1,2017-10-01T14:30:00Z,26.1914,-97.0507,2.0,28.8,11111222 
TABS,ioos:station:wmo:42044:1,2017-10-01T15:00:00Z,26.1914,-97.0507,2.0,28.36,11111222 
TABS,ioos:station:wmo:42044:1,2017-10-01T15:30:00Z,26.1914,-97.0507,2.0,28.22,11111222 
TABS,ioos:station:wmo:42044:1,2017-10-01T16:00:00Z,26.1914,-97.0507,2.0,28.15,11111222 
TABS,ioos:station:wmo:42044:1,2017-10-01T16:30:00Z,26.1914,-97.0507,2.0,28.08,11111222 
TABS,ioos:station:wmo:42044:1,2017-10-01T17:00:00Z,26.1914,-97.0507,2.0,28.02,11111222 
TABS,ioos:station:wmo:42044:1,2017-10-01T17:30:00Z,26.1914,-97.0507,2.0,28.01,11111222 
TABS,ioos:station:wmo:42044:1,2017-10-01T18:00:00Z,26.1914,-97.0507,2.0,28.03,11111222 
TABS,ioos:station:wmo:42044:1,2017-10-01T18:30:00Z,26.1914,-97.0507,2.0,28.0,11111222 
TABS,ioos:station:wmo:42044:1,2017-10-01T19:00:00Z,26.1914,-97.0507,2.0,27.97,11111222 
TABS,ioos:station:wmo:42044:1,2017-10-01T19:30:00Z,26.1914,-97.0507,2.0,27.95,11111222 
TABS,ioos:station:wmo:42044:1,2017-10-01T20:00:00Z,26.1914,-97.0507,2.0,27.94,11111222 
TABS,ioos:station:wmo:42044:1,2017-10-01T20:30:00Z,26.1914,-97.0507,2.0,27.94,11111222 
TABS,ioos:station:wmo:42044:1,2017-10-01T21:00:00Z,26.1914,-97.0507,2.0,27.93,11111222 
TABS,ioos:station:wmo:42044:1,2017-10-01T21:30:00Z,26.1914,-97.0507,2.0,27.94,11111222 
TABS,ioos:station:wmo:42044:1,2017-10-01T22:00:00Z,26.1914,-97.0507,2.0,27.97,11111222 
TABS,ioos:station:wmo:42044:1,2017-10-01T22:30:00Z,26.1914,-97.0507,2.0,27.98,11111222 
TABS,ioos:station:wmo:42044:1,2017-10-01T23:00:00Z,26.1914,-97.0507,2.0,27.99,11111222 
TABS,ioos:station:wmo:42044:1,2017-10-01T23:30:00Z,26.1914,-97.0507,2.0,28.0,11111222 
TABS,ioos:station:wmo:42044:1,2017-10-02T00:00:00Z,26.1914,-97.0507,2.0,28.0,11111222 
TABS,ioos:station:wmo:42044:1,2017-10-02T00:30:00Z,26.1914,-97.0507,2.0,28.01,11111222 
TABS,ioos:station:wmo:42044:1,2017-10-02T01:00:00Z,26.1914,-97.0507,2.0,28.04,11111222 
TABS,ioos:station:wmo:42044:1,2017-10-02T01:30:00Z,26.1914,-97.0507,2.0,28.06,11111222 
TABS,ioos:station:wmo:42044:1,2017-10-02T02:00:00Z,26.1914,-97.0507,2.0,28.08,11111222 
TABS,ioos:station:wmo:42044:1,2017-10-02T02:30:00Z,26.1914,-97.0507,2.0,28.1,11111222 
TABS,ioos:station:wmo:42044:1,2017-10-02T03:00:00Z,26.1914,-97.0507,2.0,28.1,11111222 
TABS,ioos:station:wmo:42044:1,2017-10-02T03:30:00Z,26.1914,-97.0507,2.0,28.11,11111222 
TABS,ioos:station:wmo:42044:1,2017-10-02T04:00:00Z,26.1914,-97.0507,2.0,28.13,11111222 
TABS,ioos:station:wmo:42044:1,2017-10-02T04:30:00Z,26.1914,-97.0507,2.0,28.14,11111222 
TABS,ioos:station:wmo:42044:1,2017-10-02T05:00:00Z,26.1914,-97.0507,2.0,28.14,11111222 
TABS,ioos:station:wmo:42044:1,2017-10-02T05:30:00Z,26.1914,-97.0507,2.0,28.14,11111222 
TABS,ioos:station:wmo:42044:1,2017-10-02T06:00:00Z,26.1914,-97.0507,2.0,28.15,11111222 
TABS,ioos:station:wmo:42044:1,2017-10-02T06:30:00Z,26.1914,-97.0507,2.0,28.18,11111222 
TABS,ioos:station:wmo:42044:1,2017-10-02T07:00:00Z,26.1914,-97.0507,2.0,28.12,11111222 
TABS,ioos:station:wmo:42044:1,2017-10-02T07:30:00Z,26.1914,-97.0507,2.0,27.83,11111222 
TABS,ioos:station:wmo:42044:1,2017-10-02T08:00:00Z,26.1914,-97.0507,2.0,27.78,11111222 
TABS,ioos:station:wmo:42044:1,2017-10-02T08:30:00Z,26.1914,-97.0507,2.0,27.65,11111222 
TABS,ioos:station:wmo:42044:1,2017-10-02T09:00:00Z,26.1914,-97.0507,2.0,27.58,11111222 
TABS,ioos:station:wmo:42044:1,2017-10-02T09:30:00Z,26.1914,-97.0507,2.0,27.55,11111222 
TABS,ioos:station:wmo:42044:1,2017-10-02T10:00:00Z,26.1914,-97.0507,2.0,27.5,11111222 
TABS,ioos:station:wmo:42044:1,2017-10-02T10:30:00Z,26.1914,-97.0507,2.0,27.48,11111222 
TABS,ioos:station:wmo:42044:1,2017-10-02T11:00:00Z,26.1914,-97.0507,2.0,27.47,11111222 
TABS,ioos:station:wmo:42044:1,2017-10-02T11:30:00Z,26.1914,-97.0507,2.0,27.46,11111222 
TABS,ioos:station:wmo:42044:1,2017-10-02T12:00:00Z,26.1914,-97.0507,2.0,27.44,11111222 
TABS,ioos:station:wmo:42044:1,2017-10-02T12:30:00Z,26.1914,-97.0507,2.0,27.42,11111222 
TABS,ioos:station:wmo:42044:1,2017-10-02T13:00:00Z,26.1914,-97.0507,2.0,27.38,11111222 
TABS,ioos:station:wmo:42044:1,2017-10-02T13:30:00Z,26.1914,-97.0507,2.0,27.36,11111222 
TABS,ioos:station:wmo:42044:1,2017-10-02T14:00:00Z,26.1914,-97.0507,2.0,27.35,11111222 
TABS,ioos:station:wmo:42044:1,2017-10-02T14:30:00Z,26.1914,-97.0507,2.0,27.34,11111222 
TABS,ioos:station:wmo:42044:1,2017-10-02T15:00:00Z,26.1914,-97.0507,2.0,27.32,11111222 
TABS,ioos:station:wmo:42044:1,2017-10-02T15:30:00Z,26.1914,-97.0507,2.0,27.3,11111222 
TABS,ioos:station:wmo:42044:1,2017-10-02T16:00:00Z,26.1914,-97.0507,2.0,27.3,11111222 
TABS,ioos:station:wmo:42044:1,2017-10-02T16:30:00Z,26.1914,-97.0507,2.0,27.29,11111222 
TABS,ioos:station:wmo:42044:1,2017-10-02T17:00:00Z,26.1914,-97.0507,2.0,27.29,11111222 
TABS,ioos:station:wmo:42044:1,2017-10-02T17:30:00Z,26.1914,-97.0507,2.0,27.3,11111222 
TABS,ioos:station:wmo:42044:1,2017-10-02T18:00:00Z,26.1914,-97.0507,2.0,27.31,11111222 
TABS,ioos:station:wmo:42044:1,2017-10-02T18:30:00Z,26.1914,-97.0507,2.0,27.31,11111222 
TABS,ioos:station:wmo:42044:1,2017-10-02T19:00:00Z,26.1914,-97.0507,2.0,27.31,11111222 
TABS,ioos:station:wmo:42044:1,2017-10-02T19:30:00Z,26.1914,-97.0507,2.0,27.29,11111222 
TABS,ioos:station:wmo:42044:1,2017-10-02T20:00:00Z,26.1914,-97.0507,2.0,27.27,11111222 
TABS,ioos:station:wmo:42044:1,2017-10-02T20:30:00Z,26.1914,-97.0507,2.0,27.26,11111222 
TABS,ioos:station:wmo:42044:1,2017-10-02T21:00:00Z,26.1914,-97.0507,2.0,27.24,11111222 
TABS,ioos:station:wmo:42044:1,2017-10-02T21:30:00Z,26.1914,-97.0507,2.0,27.23,11111222 
TABS,ioos:station:wmo:42044:1,2017-10-02T22:00:00Z,26.1914,-97.0507,2.0,27.21,11111222 
TABS,ioos:station:wmo:42044:1,2017-10-02T22:30:00Z,26.1914,-97.0507,2.0,27.19,11111222 
TABS,ioos:station:wmo:42044:1,2017-10-02T23:00:00Z,26.1914,-97.0507,2.0,27.19,11111222 
TABS,ioos:station:wmo:42044:1,2017-10-02T23:30:00Z,26.1914,-97.0507,2.0,27.19,11111222 
TABS,ioos:station:wmo:42044:1,2017-10-03T00:00:00Z,26.1914,-97.0507,2.0,27.22,11111222 
TABS,ioos:station:wmo:42044:1,2017-10-03T00:30:00Z,26.1914,-97.0507,2.0,27.23,11111222 
TABS,ioos:station:wmo:42044:1,2017-10-03T01:00:00Z,26.1914,-97.0507,2.0,27.27,11111222 
TABS,ioos:station:wmo:42044:1,2017-10-03T01:30:00Z,26.1914,-97.0507,2.0,27.26,11111222 
TABS,ioos:station:wmo:42044:1,2017-10-03T02:00:00Z,26.1914,-97.0507,2.0,27.27,11111222 
TABS,ioos:station:wmo:42044:1,2017-10-03T02:30:00Z,26.1914,-97.0507,2.0,27.27,11111222 
TABS,ioos:station:wmo:42044:1,2017-10-03T03:00:00Z,26.1914,-97.0507,2.0,27.26,11111222 
TABS,ioos:station:wmo:42044:1,2017-10-03T03:30:00Z,26.1914,-97.0507,2.0,27.28,11111222 
TABS,ioos:station:wmo:42044:1,2017-10-03T04:00:00Z,26.1914,-97.0507,2.0,27.3,11111222 
TABS,ioos:station:wmo:42044:1,2017-10-03T04:30:00Z,26.1914,-97.0507,2.0,27.32,11111222 
TABS,ioos:station:wmo:42044:1,2017-10-03T05:00:00Z,26.1914,-97.0507,2.0,27.32,11111222 
TABS,ioos:station:wmo:42044:1,2017-10-03T05:30:00Z,26.1914,-97.0507,2.0,27.33,11111222 
TABS,ioos:station:wmo:42044:1,2017-10-03T06:00:00Z,26.1914,-97.0507,2.0,27.35,11111222 
TABS,ioos:station:wmo:42044:1,2017-10-03T06:30:00Z,26.1914,-97.0507,2.0,27.43,11111222 
TABS,ioos:station:wmo:42044:1,2017-10-03T07:00:00Z,26.1914,-97.0507,2.0,27.45,11111222 
TABS,ioos:station:wmo:42044:1,2017-10-03T07:30:00Z,26.1914,-97.0507,2.0,27.46,11111222 
TABS,ioos:station:wmo:42044:1,2017-10-03T08:00:00Z,26.1914,-97.0507,2.0,27.47,11111222 
TABS,ioos:station:wmo:42044:1,2017-10-03T08:30:00Z,26.1914,-97.0507,2.0,27.45,11111222 
TABS,ioos:station:wmo:42044:1,2017-10-03T09:00:00Z,26.1914,-97.0507,2.0,27.44,11111222 
TABS,ioos:station:wmo:42044:1,2017-10-03T09:30:00Z,26.1914,-97.0507,2.0,27.43,11111222 
TABS,ioos:station:wmo:42044:1,2017-10-03T10:00:00Z,26.1914,-97.0507,2.0,27.38,11111222 
TABS,ioos:station:wmo:42044:1,2017-10-03T10:30:00Z,26.1914,-97.0507,2.0,27.51,11111222 
TABS,ioos:station:wmo:42044:1,2017-10-03T11:00:00Z,26.1914,-97.0507,2.0,26.97,11111222 
TABS,ioos:station:wmo:42044:1,2017-10-03T11:30:00Z,26.1914,-97.0507,2.0,26.82,11111222 
TABS,ioos:station:wmo:42044:1,2017-10-03T12:00:00Z,26.1914,-97.0507,2.0,26.75,11111222 
TABS,ioos:station:wmo:42044:1,2017-10-03T12:30:00Z,26.1914,-97.0507,2.0,26.64,11111222 
TABS,ioos:station:wmo:42044:1,2017-10-03T13:00:00Z,26.1914,-97.0507,2.0,26.49,11111222 
TABS,ioos:station:wmo:42044:1,2017-10-03T13:30:00Z,26.1914,-97.0507,2.0,26.47,11111222 
TABS,ioos:station:wmo:42044:1,2017-10-03T14:00:00Z,26.1914,-97.0507,2.0,26.34,11111222 
TABS,ioos:station:wmo:42044:1,2017-10-03T14:30:00Z,26.1914,-97.0507,2.0,26.33,11111222 
TABS,ioos:station:wmo:42044:1,2017-10-03T15:00:00Z,26.1914,-97.0507,2.0,26.32,11111222 
TABS,ioos:station:wmo:42044:1,2017-10-03T15:30:00Z,26.1914,-97.0507,2.0,26.29,11111222 
TABS,ioos:station:wmo:42044:1,2017-10-03T16:00:00Z,26.1914,-97.0507,2.0,26.3,11111222 
TABS,ioos:station:wmo:42044:1,2017-10-03T16:30:00Z,26.1914,-97.0507,2.0,26.27,11111222 
TABS,ioos:station:wmo:42044:1,2017-10-03T17:00:00Z,26.1914,-97.0507,2.0,26.25,11111222 
TABS,ioos:station:wmo:42044:1,2017-10-03T17:30:00Z,26.1914,-97.0507,2.0,26.22,11111222 
TABS,ioos:station:wmo:42044:1,2017-10-03T18:00:00Z,26.1914,-97.0507,2.0,26.2,11111222 
TABS,ioos:station:wmo:42044:1,2017-10-03T18:30:00Z,26.1914,-97.0507,2.0,26.19,11111222 
TABS,ioos:station:wmo:42044:1,2017-10-03T19:00:00Z,26.1914,-97.0507,2.0,26.16,11111222 
TABS,ioos:station:wmo:42044:1,2017-10-03T19:30:00Z,26.1914,-97.0507,2.0,26.17,11111222 
TABS,ioos:station:wmo:42044:1,2017-10-03T20:00:00Z,26.1914,-97.0507,2.0,26.17,11111222 
TABS,ioos:station:wmo:42044:1,2017-10-03T20:30:00Z,26.1914,-97.0507,2.0,26.24,11111222 
TABS,ioos:station:wmo:42044:1,2017-10-03T21:00:00Z,26.1914,-97.0507,2.0,26.32,11111222 
TABS,ioos:station:wmo:42044:1,2017-10-03T21:30:00Z,26.1914,-97.0507,2.0,26.45,11111222 
TABS,ioos:station:wmo:42044:1,2017-10-03T22:00:00Z,26.1914,-97.0507,2.0,26.5,11111222 
TABS,ioos:station:wmo:42044:1,2017-10-03T22:30:00Z,26.1914,-97.0507,2.0,26.51,11111222 
TABS,ioos:station:wmo:42044:1,2017-10-03T23:00:00Z,26.1914,-97.0507,2.0,26.56,11111222 
TABS,ioos:station:wmo:42044:1,2017-10-03T23:30:00Z,26.1914,-97.0507,2.0,26.6,11111222 
TABS,ioos:station:wmo:42044:1,2017-10-04T00:00:00Z,26.1914,-97.0507,2.0,26.6,11111222 
TABS,ioos:station:wmo:42044:1,2017-10-04T00:30:00Z,26.1914,-97.0507,2.0,26.59,11111222 
TABS,ioos:station:wmo:42044:1,2017-10-04T01:00:00Z,26.1914,-97.0507,2.0,26.51,11111222 
TABS,ioos:station:wmo:42044:1,2017-10-04T01:30:00Z,26.1914,-97.0507,2.0,26.44,11111222 
TABS,ioos:station:wmo:42044:1,2017-10-04T02:00:00Z,26.1914,-97.0507,2.0,26.41,11111222 
TABS,ioos:station:wmo:42044:1,2017-10-04T02:30:00Z,26.1914,-97.0507,2.0,26.38,11111222 
TABS,ioos:station:wmo:42044:1,2017-10-04T03:00:00Z,26.1914,-97.0507,2.0,26.39,11111222 
TABS,ioos:station:wmo:42044:1,2017-10-04T03:30:00Z,26.1914,-97.0507,2.0,26.41,11111222 
TABS,ioos:station:wmo:42044:1,2017-10-04T04:00:00Z,26.1914,-97.0507,2.0,26.45,11111222 
TABS,ioos:station:wmo:42044:1,2017-10-04T04:30:00Z,26.1914,-97.0507,2.0,26.49,11111222 
TABS,ioos:station:wmo:42044:1,2017-10-04T05:00:00Z,26.1914,-97.0507,2.0,26.57,11111222 
TABS,ioos:station:wmo:42044:1,2017-10-04T05:30:00Z,26.1914,-97.0507,2.0,26.54,11111222 
TABS,ioos:station:wmo:42044:1,2017-10-04T06:00:00Z,26.1914,-97.0507,2.0,26.53,11111222 
TABS,ioos:station:wmo:42044:1,2017-10-04T06:30:00Z,26.1914,-97.0507,2.0,26.51,11111222 
TABS,ioos:station:wmo:42044:1,2017-10-04T07:00:00Z,26.1914,-97.0507,2.0,26.45,11111222 
TABS,ioos:station:wmo:42044:1,2017-10-04T07:30:00Z,26.1914,-97.0507,2.0,25.94,11111222 
TABS,ioos:station:wmo:42044:1,2017-10-04T08:00:00Z,26.1914,-97.0507,2.0,26.44,11111222 
TABS,ioos:station:wmo:42044:1,2017-10-04T08:30:00Z,26.1914,-97.0507,2.0,26.43,11111222 
TABS,ioos:station:wmo:42044:1,2017-10-04T09:00:00Z,26.1914,-97.0507,2.0,26.45,11111222 
TABS,ioos:station:wmo:42044:1,2017-10-04T09:30:00Z,26.1914,-97.0507,2.0,26.47,11111222 
TABS,ioos:station:wmo:42044:1,2017-10-04T10:00:00Z,26.1914,-97.0507,2.0,26.5,11111222 
TABS,ioos:station:wmo:42044:1,2017-10-04T10:30:00Z,26.1914,-97.0507,2.0,26.48,11111222 
TABS,ioos:station:wmo:42044:1,2017-10-04T11:00:00Z,26.1914,-97.0507,2.0,26.56,11111222 
TABS,ioos:station:wmo:42044:1,2017-10-04T11:30:00Z,26.1914,-97.0507,2.0,26.62,11111222 
TABS,ioos:station:wmo:42044:1,2017-10-04T12:00:00Z,26.1914,-97.0507,2.0,26.69,11111222 
TABS,ioos:station:wmo:42044:1,2017-10-04T12:30:00Z,26.1914,-97.0507,2.0,26.7,11111222 
TABS,ioos:station:wmo:42044:1,2017-10-04T13:00:00Z,26.1914,-97.0507,2.0,26.6,11111222 
TABS,ioos:station:wmo:42044:1,2017-10-04T13:30:00Z,26.1914,-97.0507,2.0,26.5,11111222 
TABS,ioos:station:wmo:42044:1,2017-10-04T14:00:00Z,26.1914,-97.0507,2.0,26.52,11111222 
TABS,ioos:station:wmo:42044:1,2017-10-04T14:30:00Z,26.1914,-97.0507,2.0,26.54,11111222 
TABS,ioos:station:wmo:42044:1,2017-10-04T15:00:00Z,26.1914,-97.0507,2.0,26.55,11111222 
TABS,ioos:station:wmo:42044:1,2017-10-04T15:30:00Z,26.1914,-97.0507,2.0,26.55,11111222 
TABS,ioos:station:wmo:42044:1,2017-10-04T16:00:00Z,26.1914,-97.0507,2.0,26.57,11111222 
TABS,ioos:station:wmo:42044:1,2017-10-04T16:30:00Z,26.1914,-97.0507,2.0,26.59,11111222 
TABS,ioos:station:wmo:42044:1,2017-10-04T17:00:00Z,26.1914,-97.0507,2.0,26.59,11111222 
TABS,ioos:station:wmo:42044:1,2017-10-04T17:30:00Z,26.1914,-97.0507,2.0,26.68,11111222 
TABS,ioos:station:wmo:42044:1,2017-10-04T18:00:00Z,26.1914,-97.0507,2.0,26.73,11111222 
TABS,ioos:station:wmo:42044:1,2017-10-04T18:30:00Z,26.1914,-97.0507,2.0,26.7,11111222 
TABS,ioos:station:wmo:42044:1,2017-10-04T19:00:00Z,26.1914,-97.0507,2.0,26.68,11111222 
TABS,ioos:station:wmo:42044:1,2017-10-04T19:30:00Z,26.1914,-97.0507,2.0,26.75,11111222 
TABS,ioos:station:wmo:42044:1,2017-10-04T20:00:00Z,26.1914,-97.0507,2.0,26.77,11111222 
TABS,ioos:station:wmo:42044:1,2017-10-04T20:30:00Z,26.1914,-97.0507,2.0,26.77,11111222 
TABS,ioos:station:wmo:42044:1,2017-10-04T21:00:00Z,26.1914,-97.0507,2.0,26.78,11111222 
TABS,ioos:station:wmo:42044:1,2017-10-04T21:30:00Z,26.1914,-97.0507,2.0,26.76,11111222 
TABS,ioos:station:wmo:42044:1,2017-10-04T22:00:00Z,26.1914,-97.0507,2.0,26.76,11111222 
TABS,ioos:station:wmo:42044:1,2017-10-04T22:30:00Z,26.1914,-97.0507,2.0,26.8,11111222 
TABS,ioos:station:wmo:42044:1,2017-10-04T23:00:00Z,26.1914,-97.0507,2.0,26.82,11111222 
TABS,ioos:station:wmo:42044:1,2017-10-04T23:30:00Z,26.1914,-97.0507,2.0,26.86,11111222 
TABS,ioos:station:wmo:42044:1,2017-10-05T00:00:00Z,26.1914,-97.0507,2.0,26.89,11111222 
TABS,ioos:station:wmo:42044:1,2017-10-05T00:30:00Z,26.1914,-97.0507,2.0,26.9,11111222 
TABS,ioos:station:wmo:42044:1,2017-10-05T01:00:00Z,26.1914,-97.0507,2.0,26.88,11111222 
TABS,ioos:station:wmo:42044:1,2017-10-05T01:30:00Z,26.1914,-97.0507,2.0,26.91,11111222 
TABS,ioos:station:wmo:42044:1,2017-10-05T02:00:00Z,26.1914,-97.0507,2.0,26.93,11111222 
TABS,ioos:station:wmo:42044:1,2017-10-05T02:30:00Z,26.1914,-97.0507,2.0,26.93,11111222 
TABS,ioos:station:wmo:42044:1,2017-10-05T03:00:00Z,26.1914,-97.0507,2.0,26.92,11111222 
TABS,ioos:station:wmo:42044:1,2017-10-05T03:30:00Z,26.1914,-97.0507,2.0,26.91,11111222 
TABS,ioos:station:wmo:42044:1,2017-10-05T04:00:00Z,26.1914,-97.0507,2.0,26.89,11111222 
TABS,ioos:station:wmo:42044:1,2017-10-05T04:30:00Z,26.1914,-97.0507,2.0,26.85,11111222 
TABS,ioos:station:wmo:42044:1,2017-10-05T05:00:00Z,26.1914,-97.0507,2.0,26.87,11111222 
TABS,ioos:station:wmo:42044:1,2017-10-05T05:30:00Z,26.1914,-97.0507,2.0,26.89,11111222 
TABS,ioos:station:wmo:42044:1,2017-10-05T06:00:00Z,26.1914,-97.0507,2.0,26.87,11111222 
TABS,ioos:station:wmo:42044:1,2017-10-05T06:30:00Z,26.1914,-97.0507,2.0,26.88,11111222 
TABS,ioos:station:wmo:42044:1,2017-10-05T07:00:00Z,26.1914,-97.0507,2.0,26.88,11111222 
TABS,ioos:station:wmo:42044:1,2017-10-05T07:30:00Z,26.1914,-97.0507,2.0,26.87,11111222 
TABS,ioos:station:wmo:42044:1,2017-10-05T08:00:00Z,26.1914,-97.0507,2.0,26.73,11111222 
TABS,ioos:station:wmo:42044:1,2017-10-05T08:30:00Z,26.1914,-97.0507,2.0,26.63,11111222 
TABS,ioos:station:wmo:42044:1,2017-10-05T09:00:00Z,26.1914,-97.0507,2.0,26.55,11111222 
TABS,ioos:station:wmo:42044:1,2017-10-05T09:30:00Z,26.1914,-97.0507,2.0,26.2,11111222 
TABS,ioos:station:wmo:42044:1,2017-10-05T10:00:00Z,26.1914,-97.0507,2.0,26.28,11111222 
TABS,ioos:station:wmo:42044:1,2017-10-05T10:30:00Z,26.1914,-97.0507,2.0,26.39,11111222 
TABS,ioos:station:wmo:42044:1,2017-10-05T11:00:00Z,26.1914,-97.0507,2.0,26.49,11111222 
TABS,ioos:station:wmo:42044:1,2017-10-05T11:30:00Z,26.1914,-97.0507,2.0,26.66,11111222 
TABS,ioos:station:wmo:42044:1,2017-10-05T12:00:00Z,26.1914,-97.0507,2.0,26.7,11111222 
TABS,ioos:station:wmo:42044:1,2017-10-05T12:30:00Z,26.1914,-97.0507,2.0,26.67,11111222 
TABS,ioos:station:wmo:42044:1,2017-10-05T13:00:00Z,26.1914,-97.0507,2.0,26.65,11111222 
TABS,ioos:station:wmo:42044:1,2017-10-05T13:30:00Z,26.1914,-97.0507,2.0,26.68,11111222 
TABS,ioos:station:wmo:42044:1,2017-10-05T14:00:00Z,26.1914,-97.0507,2.0,26.74,11111222 
TABS,ioos:station:wmo:42044:1,2017-10-05T14:30:00Z,26.1914,-97.0507,2.0,26.7,11111222 
TABS,ioos:station:wmo:42044:1,2017-10-05T15:00:00Z,26.1914,-97.0507,2.0,26.66,11111222 
TABS,ioos:station:wmo:42044:1,2017-10-05T15:30:00Z,26.1914,-97.0507,2.0,26.64,11111222 
TABS,ioos:station:wmo:42044:1,2017-10-05T16:00:00Z,26.1914,-97.0507,2.0,26.63,11111222 
TABS,ioos:station:wmo:42044:1,2017-10-05T16:30:00Z,26.1914,-97.0507,2.0,26.59,11111222 
TABS,ioos:station:wmo:42044:1,2017-10-05T17:00:00Z,26.1914,-97.0507,2.0,26.52,11111222 
TABS,ioos:station:wmo:42044:1,2017-10-05T17:30:00Z,26.1914,-97.0507,2.0,26.49,11111222 
TABS,ioos:station:wmo:42044:1,2017-10-05T18:00:00Z,26.1914,-97.0507,2.0,26.48,11111222 
TABS,ioos:station:wmo:42044:1,2017-10-05T18:30:00Z,26.1914,-97.0507,2.0,26.45,11111222 
TABS,ioos:station:wmo:42044:1,2017-10-05T19:00:00Z,26.1914,-97.0507,2.0,26.46,11111222 
TABS,ioos:station:wmo:42044:1,2017-10-05T19:30:00Z,26.1914,-97.0507,2.0,26.44,11111222 
TABS,ioos:station:wmo:42044:1,2017-10-05T20:00:00Z,26.1914,-97.0507,2.0,26.41,11111222 
TABS,ioos:station:wmo:42044:1,2017-10-05T20:30:00Z,26.1914,-97.0507,2.0,26.42,11111222 
TABS,ioos:station:wmo:42044:1,2017-10-05T21:00:00Z,26.1914,-97.0507,2.0,26.49,11111222 
TABS,ioos:station:wmo:42044:1,2017-10-05T21:30:00Z,26.1914,-97.0507,2.0,26.48,11111222 
TABS,ioos:station:wmo:42044:1,2017-10-05T22:00:00Z,26.1914,-97.0507,2.0,26.51,11111222 
TABS,ioos:station:wmo:42044:1,2017-10-05T22:30:00Z,26.1914,-97.0507,2.0,26.82,11111222 
TABS,ioos:station:wmo:42044:1,2017-10-05T23:00:00Z,26.1914,-97.0507,2.0,26.65,11111222 
TABS,ioos:station:wmo:42044:1,2017-10-05T23:30:00Z,26.1914,-97.0507,2.0,26.59,11111222 
TABS,ioos:station:wmo:42044:1,2017-10-06T00:00:00Z,26.1914,-97.0507,2.0,26.54,11111222 
TABS,ioos:station:wmo:42044:1,2017-10-06T00:30:00Z,26.1914,-97.0507,2.0,26.64,11111222 
TABS,ioos:station:wmo:42044:1,2017-10-06T01:00:00Z,26.1914,-97.0507,2.0,26.6,11111222 
TABS,ioos:station:wmo:42044:1,2017-10-06T01:30:00Z,26.1914,-97.0507,2.0,26.53,11111222 
TABS,ioos:station:wmo:42044:1,2017-10-06T02:00:00Z,26.1914,-97.0507,2.0,26.31,11111222 
TABS,ioos:station:wmo:42044:1,2017-10-06T02:30:00Z,26.1914,-97.0507,2.0,26.3,11111222 
TABS,ioos:station:wmo:42044:1,2017-10-06T03:00:00Z,26.1914,-97.0507,2.0,26.17,11111222 
TABS,ioos:station:wmo:42044:1,2017-10-06T03:30:00Z,26.1914,-97.0507,2.0,26.18,11111222 
TABS,ioos:station:wmo:42044:1,2017-10-06T04:00:00Z,26.1914,-97.0507,2.0,26.43,11111222 
TABS,ioos:station:wmo:42044:1,2017-10-06T04:30:00Z,26.1914,-97.0507,2.0,26.6,11111222 
TABS,ioos:station:wmo:42044:1,2017-10-06T05:00:00Z,26.1914,-97.0507,2.0,26.42,11111222 
TABS,ioos:station:wmo:42044:1,2017-10-06T05:30:00Z,26.1914,-97.0507,2.0,26.86,11111222 
TABS,ioos:station:wmo:42044:1,2017-10-06T06:00:00Z,26.1914,-97.0507,2.0,26.93,11111222 
TABS,ioos:station:wmo:42044:1,2017-10-06T06:30:00Z,26.1914,-97.0507,2.0,27.02,11111222 
TABS,ioos:station:wmo:42044:1,2017-10-06T07:00:00Z,26.1914,-97.0507,2.0,27.18,11111222 
TABS,ioos:station:wmo:42044:1,2017-10-06T07:30:00Z,26.1914,-97.0507,2.0,27.38,11111222 
TABS,ioos:station:wmo:42044:1,2017-10-06T08:00:00Z,26.1914,-97.0507,2.0,27.71,11111222 
TABS,ioos:station:wmo:42044:1,2017-10-06T08:30:00Z,26.1914,-97.0507,2.0,28.01,11111222 
TABS,ioos:station:wmo:42044:1,2017-10-06T09:00:00Z,26.1914,-97.0507,2.0,27.89,11111222 
TABS,ioos:station:wmo:42044:1,2017-10-06T09:30:00Z,26.1914,-97.0507,2.0,27.58,11111222 
TABS,ioos:station:wmo:42044:1,2017-10-06T10:00:00Z,26.1914,-97.0507,2.0,27.74,11111222 
TABS,ioos:station:wmo:42044:1,2017-10-06T10:30:00Z,26.1914,-97.0507,2.0,27.42,11111222 
TABS,ioos:station:wmo:42044:1,2017-10-06T11:00:00Z,26.1914,-97.0507,2.0,27.4,11111222 
TABS,ioos:station:wmo:42044:1,2017-10-06T11:30:00Z,26.1914,-97.0507,2.0,27.28,11111222 
TABS,ioos:station:wmo:42044:1,2017-10-06T12:00:00Z,26.1914,-97.0507,2.0,27.02,11111222 
TABS,ioos:station:wmo:42044:1,2017-10-06T12:30:00Z,26.1914,-97.0507,2.0,26.96,11111222 
TABS,ioos:station:wmo:42044:1,2017-10-06T13:00:00Z,26.1914,-97.0507,2.0,26.91,11111222 
TABS,ioos:station:wmo:42044:1,2017-10-06T13:30:00Z,26.1914,-97.0507,2.0,26.87,11111222 
TABS,ioos:station:wmo:42044:1,2017-10-06T14:00:00Z,26.1914,-97.0507,2.0,26.85,11111222 
TABS,ioos:station:wmo:42044:1,2017-10-06T14:30:00Z,26.1914,-97.0507,2.0,26.81,11111222 
TABS,ioos:station:wmo:42044:1,2017-10-06T15:00:00Z,26.1914,-97.0507,2.0,26.75,11111222 
TABS,ioos:station:wmo:42044:1,2017-10-06T15:30:00Z,26.1914,-97.0507,2.0,26.72,11111222 